Location: Great Snoring
(52.8667°N, 0.8833°E)
Time: 20:52:08
(UTC+00:00)

Cosmos 1697 Rocket - Pass Details

Date: 19 May 2025
Orbit: 830 x 844 km, 71.0° (Epoch: 12 June)

Event Time Altitude Azimuth Distance (km) Brightness Sun altitude
Rises 21:16:09 0° 326° (NNW) 3,408 8.2 -9.6°
Reaches altitude 10° 21:18:37 10° 323° (NW) 2,470 6.8 -9.9°
Maximum altitude 21:24:11 59° 246° (WSW) 973 3.1 -10.3°
Enters shadow 21:29:25 12° 169° (SSE) 2,349 4.4 -10.8°
